Regional Weather Roundup
Issued by NWS

Home | Current Version | Previous Version | Text Only | Print | Product List | Glossary Off
Versions: 1 2 3 4 5 6 7 8 9 10 11 12 13 14 15 16 17 18 19 20 21 22 23 24 25 26 27 28 29 30 31 32 33 34 35 36 37 38 39 40 41 42 43 44 45 46 47 48 49 50

000
ASUS45 KBOU 251907
RWRCO

WEATHER ROUNDUP FOR COLORADO
NATIONAL WEATHER SERVICE DENVER/BOULDER CO
100 PM MDT TUE APR 25 2017

NOTE: "FAIR" INDICATES FEW OR NO CLOUDS BELOW 12000 FEET WITH NO
SIGNIFICANT WEATHER AND/OR OBSTRUCTIONS TO VISIBILITY.

COZ001>005-013-030-031-252000-
...NORTHWEST COLORADO...

CITY           SKY/WX    TMP DP  RH WIND       PRES   REMARKS
CRAIG          PTSUNNY   48  34  58 SW13G18   29.69F
HAYDEN         FAIR      39  30  70 SW7       29.71R
MEEKER         CLOUDY    40  34  79 W9        29.72S
MOUNT WERNER   NOT AVBL
STEAMBOAT SPGS PTSUNNY   41  30  65 SW9       29.69S
WALDEN           N/A     37  21  52 W7        29.69S
$$

COZ006>008-011-252000-
...WEST CENTRAL VALLEYS...

CITY           SKY/WX    TMP DP  RH WIND       PRES   REMARKS
GRAND JUNCTION PTSUNNY   50  32  50 SW24G37   29.66R
MONTROSE       LGT RAIN  44  36  73 S17       29.69S
EAGLE          PTSUNNY   41  32  70 E6        29.70S
RIFLE          CLOUDY    49  32  52 W20       29.68R
DELTA          FAIR      60  24  25 W14G23    29.64F
NUCLA          PTSUNNY   52  27  37 NW18G26   29.71F
$$

COZ017>023-064>068-252000-
...SOUTHWEST COLORADO...

CITY           SKY/WX    TMP DP  RH WIND       PRES   REMARKS
DURANGO        CLOUDY    51  25  36 W15G28    29.66S
CORTEZ         FAIR      53  33  46 SW13      29.68F
PAGOSA SPRINGS LGT RAIN  40  37  89 W10       29.68F
TELLURIDE      PTSUNNY   38  29  69 W9G16     29.73R
WOLF CREEK PAS HVY SNOW  25  25 100 SW17      29.77S VSB 1/4 WCI  11
$$

COZ009-010-012-014-032>034-037-058>063-252000-
...CENTRAL COLORADO...

CITY           SKY/WX    TMP DP  RH WIND       PRES   REMARKS
ASPEN          PTSUNNY   39  27  62 SE3       29.67F
BUENA VISTA    CLOUDY    47  14  27 N15G24    29.60S
COPPER MTN     SNOW      25  19  80 NW9       29.73R VSB 1/2 WCI  15
BERTHOUD PASS  CLOUDY    18   5  57 N15G25    29.72S WCI   3
COTTONWOOD PAS CLOUDY    41  19  42 W7        29.65S
GUNNISON       FAIR      43  27  53 W8        29.66F
KREMMLING      CLOUDY    50  25  37 NW5       29.69F
LEADVILLE      FAIR      36  18  48 NW12G18   29.67F
MONARCH PASS   CLOUDY    27  19  74 W18G30    29.81F WCI  13
SALIDA         FAIR      51  16  24 W14G23    29.67F
SUNLIGHT       CLOUDY    27  23  86 MISG      29.77S FOG
WILKERSON PASS CLOUDY    36  12  38 NW5       29.71S
$$

COZ069>075-252000-
...SAN LUIS VALLEY/SANGRE DE CRISTO MOUNTAINS...

CITY           SKY/WX    TMP DP  RH WIND       PRES   REMARKS
ALAMOSA        CLOUDY    46  35  65 N9        29.63F
LA VETA PASS   CLOUDY    39  28  65 CALM      29.78F
SAGUACHE       CLOUDY    41  30  65 S15       29.63S
$$

COZ035-036-038>040-252000-
...NORTHERN COLORADO FRONT RANGE...

CITY           SKY/WX    TMP DP  RH WIND       PRES   REMARKS
DENVER INTL AP PTSUNNY   57  28  33 NE10G26   29.57F
DMNS CITY PARK   N/A     56  26  30 E8G15     29.57S
AURORA         PTSUNNY   58  22  25 CALM      29.57F
FRONT RANGE AP PTSUNNY   57  34  41 N17G25    29.59F
ERIE MUNI ARPT FAIR      59  31  34 N8        29.57F
BOULDER MUN AP LGT RAIN  50  34  53 N6        29.58S
CENTENNIAL     PTSUNNY   54  22  28 N15G24    29.57F
BROOMFIELD     PTSUNNY   57  30  35 NE13      29.58F
FORT COLLINS   LGT RAIN  50  32  50 SW15G21   29.60R
LONGMONT       PTSUNNY   58  33  37 NE3       29.60S
$$

COZ041-046-047-076>085-087-088-252000-
...PIKES PEAK/PALMER DIVIDE AND SOUTHERN FOOTHILLS...

CITY           SKY/WX    TMP DP  RH WIND       PRES   REMARKS
COLO. SPRINGS  LGT RAIN  46  38  73 S16       29.59F
A. F. ACADEMY  FAIR      53  26  35 SE9       29.56F
SCHRIEVER AFB  LGT RAIN  45  37  76 S18G28    29.59
ELLICOTT       NOT AVBL
FALCON         PTSUNNY   51  28  39 S17G23    29.61S
FORT CARSON    LGT RAIN  41  39  93 E7        29.60S
LIMON          FAIR      56  32  40 E7        29.56F
MONUMENT HILL  LGT RAIN  41  25  52 SE10G16   29.63R
TRINIDAD       FAIR      54  35  48 E13       29.56F
$$

COZ042>045-048>051-090-091-252000-
...NORTHEAST COLORADO...

CITY           SKY/WX    TMP DP  RH WIND       PRES   REMARKS
GREELEY ARPT   FAIR      56  27  32 NE7       29.59F
AKRON          CLOUDY    51  31  46 SW5       29.58F
BURLINGTON     NOT AVBL
WRAY           NOT AVBL
STERLING       PTSUNNY   57  37  47 CALM      29.55F
HOLYOKE        PTSUNNY   59  43  55 NE8       29.57F
FORT MORGAN    FAIR      60  25  26 NW8G18    29.59S
$$

COZ086-089-092>099-252000-
...SOUTHEAST COLORADO...

CITY           SKY/WX    TMP DP  RH WIND       PRES   REMARKS
PUEBLO         CLOUDY    55  39  54 SE14      29.56F
LA JUNTA       PTSUNNY   55  41  59 E7        29.57F
LAMAR          PTSUNNY   58  40  51 E8        29.55F
SPRINGFIELD      N/A     54  41  61 N8        29.57F
$$



USA.gov is the U.S. government's official web portal to all federal, state and local government web resources and services.